When you browse on this site, cookies collect data to enhance your experience and personalize the content and advertising you see.
Visit our Privacy Policy to learn more. By continuing to use the site, you agree to this use of cookies and data.
  • In Belgium
  • List of Countries
  • For 7 days
  • Water Temperature
  • Satellite Maps
  • Weather Map
  • Weather Widgets
  • user-avatar
    Login

    Hourly Weather Armawir

    Today, 23 March, Saturday

    Time Temperature Precipitation Wind Pressure Humidity
    00:00 +6°C° 0 mm 2 mps 690 mmHg 45%
    01:00 +6°C° 0 mm 1 mps 689 mmHg 46%
    02:00 +6°C° 0 mm 1 mps 689 mmHg 47%
    03:00 +5°C° 0 mm 1 mps 689 mmHg 48%
    04:00 +5°C° 0 mm 1 mps 688 mmHg 49%
    05:00 +5°C° 0 mm 1 mps 688 mmHg 50%
    06:00 +4°C° 0 mm 1 mps 688 mmHg 51%
    07:00 +6°C° 0 mm 1 mps 688 mmHg 47%
    08:00 +6°C° 0 mm 2 mps 688 mmHg 43%
    09:00 +7°C° 0 mm 2 mps 687 mmHg 38%
    10:00 +9°C° 0 mm 3 mps 687 mmHg 37%
    11:00 +10°C° 0 mm 3 mps 686 mmHg 36%
    12:00 +11°C° 0 mm 3 mps 685 mmHg 34%
    13:00 +11°C° 0 mm 3 mps 685 mmHg 34%
    14:00 +12°C° 0 mm 3 mps 685 mmHg 33%
    15:00 +12°C° 0 mm 3 mps 684 mmHg 32%
    16:00 +12°C° 0 mm 3 mps 684 mmHg 34%
    17:00 +11°C° 0 mm 3 mps 684 mmHg 35%
    18:00 +11°C° 0 mm 3 mps 684 mmHg 37%
    19:00 +10°C° 0 mm 3 mps 684 mmHg 39%
    20:00 +9°C° 0 mm 3 mps 684 mmHg 41%
    21:00 +8°C° 0 mm 3 mps 684 mmHg 43%
    22:00 +8°C° 0 mm 3 mps 684 mmHg 45%
    23:00 +7°C° 0 mm 3 mps 683 mmHg 47%

    Tomorrow, 24 March, Sunday

    Time Temperature Precipitation Wind Pressure Humidity
    00:00 +7°C° 0 mm 3 mps 683 mmHg 49%
    01:00 +7°C° 0.2 mm 3 mps 683 mmHg 53%
    02:00 +7°C° 0.2 mm 3 mps 683 mmHg 57%
    03:00 +5°C° 0.2 mm 3 mps 682 mmHg 61%
    04:00 +5°C° 0.4 mm 3 mps 682 mmHg 63%
    05:00 +5°C° 0.4 mm 3 mps 682 mmHg 65%
    06:00 +6°C° 0.4 mm 2 mps 682 mmHg 66%
    07:00 +5°C° 0.3 mm 3 mps 682 mmHg 64%
    08:00 +7°C° 0.3 mm 3 mps 682 mmHg 61%
    09:00 +8°C° 0.3 mm 3 mps 682 mmHg 59%
    10:00 +8°C° 0.3 mm 3 mps 681 mmHg 56%
    11:00 +9°C° 0.3 mm 2 mps 681 mmHg 53%
    12:00 +10°C° 0.3 mm 2 mps 681 mmHg 51%
    13:00 +10°C° 0.1 mm 2 mps 681 mmHg 50%
    14:00 +12°C° 0.1 mm 2 mps 681 mmHg 49%
    15:00 +12°C° 0.1 mm 2 mps 680 mmHg 47%
    16:00 +10°C° 0.4 mm 3 mps 680 mmHg 51%
    17:00 +8°C° 0.4 mm 4 mps 681 mmHg 55%
    18:00 +7°C° 0.4 mm 4 mps 681 mmHg 59%
    19:00 +6°C° 0.4 mm 4 mps 681 mmHg 61%
    20:00 +6°C° 0.4 mm 4 mps 682 mmHg 62%
    21:00 +5°C° 0.4 mm 4 mps 682 mmHg 63%
    22:00 +5°C° 0.1 mm 4 mps 682 mmHg 63%
    23:00 +5°C° 0.1 mm 3 mps 682 mmHg 63%

    Day after tomorrow, 25 March, Monday

    Time Temperature Precipitation Wind Pressure Humidity
    00:00 +4°C° 0.1 mm 3 mps 682 mmHg 62%
    01:00 +4°C° 0 mm 3 mps 682 mmHg 62%
    02:00 +3°C° 0 mm 3 mps 682 mmHg 61%
    03:00 +3°C° 0 mm 3 mps 682 mmHg 60%
    04:00 +3°C° 0 mm 3 mps 681 mmHg 60%
    05:00 +3°C° 0 mm 3 mps 681 mmHg 59%
    06:00 +3°C° 0 mm 3 mps 681 mmHg 59%
    07:00 +4°C° 0 mm 3 mps 681 mmHg 55%
    08:00 +7°C° 0 mm 3 mps 681 mmHg 51%
    09:00 +8°C° 0 mm 3 mps 681 mmHg 47%
    10:00 +9°C° 0 mm 3 mps 680 mmHg 45%
    11:00 +10°C° 0 mm 2 mps 680 mmHg 43%
    12:00 +12°C° 0 mm 2 mps 680 mmHg 41%
    13:00 +13°C° 0 mm 2 mps 680 mmHg 41%
    14:00 +13°C° 0 mm 2 mps 679 mmHg 41%
    15:00 +13°C° 0 mm 1 mps 679 mmHg 40%
    16:00 +13°C° 0.1 mm 1 mps 680 mmHg 42%
    17:00 +12°C° 0.1 mm 1 mps 680 mmHg 45%
    18:00 +12°C° 0.1 mm 1 mps 681 mmHg 47%
    19:00 +11°C° 0.1 mm 1 mps 681 mmHg 49%
    20:00 +10°C° 0.1 mm 1 mps 682 mmHg 51%
    21:00 +10°C° 0.1 mm 1 mps 682 mmHg 54%
    22:00 +9°C° 0.1 mm 1 mps 682 mmHg 55%
    23:00 +9°C° 0.1 mm 1 mps 683 mmHg 57%

    26 March, Tuesday

    Time Temperature Precipitation Wind Pressure Humidity
    00:00 +8°C° 0.1 mm 1 mps 683 mmHg 59%
    01:00 +8°C° 0 mm 1 mps 683 mmHg 60%
    02:00 +8°C° 0 mm 1 mps 683 mmHg 61%
    03:00 +7°C° 0 mm 1 mps 683 mmHg 63%
    04:00 +6°C° 0.1 mm 0 mps 683 mmHg 63%
    05:00 +6°C° 0.1 mm 0 mps 683 mmHg 64%
    06:00 +6°C° 0.1 mm 0 mps 683 mmHg 65%
    07:00 +6°C° 0.1 mm 0 mps 684 mmHg 62%
    08:00 +7°C° 0.1 mm 0 mps 684 mmHg 60%
    09:00 +7°C° 0.1 mm 0 mps 684 mmHg 57%
    10:00 +9°C° 0 mm 0 mps 684 mmHg 53%
    11:00 +10°C° 0 mm 0 mps 683 mmHg 49%
    12:00 +11°C° 0 mm 0 mps 683 mmHg 45%
    13:00 +12°C° 0 mm 1 mps 683 mmHg 44%
    14:00 +13°C° 0 mm 1 mps 683 mmHg 42%
    15:00 +14°C° 0 mm 2 mps 683 mmHg 40%
    16:00 +13°C° 0 mm 1 mps 683 mmHg 41%
    17:00 +13°C° 0 mm 1 mps 683 mmHg 42%
    18:00 +12°C° 0 mm 1 mps 683 mmHg 43%
    19:00 +12°C° 0 mm 1 mps 684 mmHg 46%
    20:00 +11°C° 0 mm 1 mps 684 mmHg 49%
    21:00 +10°C° 0 mm 1 mps 684 mmHg 52%
    22:00 +9°C° 0 mm 1 mps 684 mmHg 53%
    23:00 +9°C° 0 mm 1 mps 684 mmHg 55%

    27 March, Wednesday

    Time Temperature Precipitation Wind Pressure Humidity
    00:00 +8°C° 0 mm 1 mps 684 mmHg 57%
    01:00 +8°C° 0 mm 1 mps 684 mmHg 58%
    02:00 +8°C° 0 mm 1 mps 684 mmHg 58%
    03:00 +7°C° 0 mm 1 mps 684 mmHg 59%
    04:00 +7°C° 0 mm 1 mps 684 mmHg 60%
    05:00 +7°C° 0 mm 1 mps 684 mmHg 62%
    06:00 +7°C° 0 mm 1 mps 684 mmHg 63%
    07:00 +8°C° 0.1 mm 1 mps 684 mmHg 59%
    08:00 +9°C° 0.1 mm 1 mps 684 mmHg 55%
    09:00 +10°C° 0.1 mm 1 mps 684 mmHg 51%
    10:00 +11°C° 0 mm 1 mps 684 mmHg 48%
    11:00 +12°C° 0 mm 1 mps 684 mmHg 45%
    12:00 +13°C° 0 mm 1 mps 684 mmHg 43%
    13:00 +14°C° 0 mm 1 mps 684 mmHg 41%
    14:00 +14°C° 0 mm 1 mps 684 mmHg 40%
    15:00 +15°C° 0 mm 2 mps 684 mmHg 39%
    16:00 +14°C° 0.1 mm 1 mps 684 mmHg 40%
    17:00 +14°C° 0.1 mm 1 mps 685 mmHg 42%
    18:00 +14°C° 0.1 mm 1 mps 685 mmHg 43%
    19:00 +13°C° 0 mm 1 mps 685 mmHg 46%
    20:00 +12°C° 0 mm 1 mps 686 mmHg 49%
    21:00 +11°C° 0 mm 1 mps 686 mmHg 52%
    22:00 +10°C° 0 mm 1 mps 686 mmHg 54%
    23:00 +10°C° 0 mm 1 mps 686 mmHg 55%

    28 March, Thursday

    Time Temperature Precipitation Wind Pressure Humidity
    00:00 +9°C° 0 mm 1 mps 686 mmHg 57%
    01:00 +9°C° 0.1 mm 1 mps 686 mmHg 58%
    02:00 +9°C° 0.1 mm 1 mps 686 mmHg 59%
    03:00 +8°C° 0.1 mm 1 mps 686 mmHg 60%
    04:00 +8°C° 0.1 mm 1 mps 686 mmHg 61%
    05:00 +8°C° 0.1 mm 1 mps 686 mmHg 62%
    06:00 +7°C° 0.1 mm 1 mps 686 mmHg 63%
    07:00 +8°C° 0.1 mm 1 mps 686 mmHg 60%
    08:00 +9°C° 0.1 mm 1 mps 687 mmHg 58%
    09:00 +9°C° 0.1 mm 1 mps 687 mmHg 55%
    10:00 +10°C° 0.1 mm 1 mps 686 mmHg 52%
    11:00 +11°C° 0.1 mm 1 mps 686 mmHg 50%
    12:00 +11°C° 0.1 mm 1 mps 686 mmHg 47%
    13:00 +10°C° 0.1 mm 2 mps 686 mmHg 46%
    14:00 +10°C° 0.1 mm 3 mps 686 mmHg 46%
    15:00 +11°C° 0.1 mm 3 mps 686 mmHg 45%
    16:00 +10°C° 0.1 mm 3 mps 686 mmHg 46%
    17:00 +10°C° 0.1 mm 3 mps 686 mmHg 46%
    18:00 +9°C° 0.1 mm 3 mps 687 mmHg 47%
    19:00 +8°C° 0 mm 3 mps 687 mmHg 49%
    20:00 +8°C° 0 mm 2 mps 688 mmHg 51%
    21:00 +7°C° 0 mm 2 mps 688 mmHg 54%
    22:00 +6°C° 0 mm 2 mps 688 mmHg 54%
    23:00 +6°C° 0 mm 2 mps 688 mmHg 55%
    Show more